Location: Slidell
(30.2789°N, 89.7378°W)
Time: 14:45:48
(UTC-05:00)

Cosmos 2360 Rocket - Visible Passes

Search period start: 27 May 2015 00:00
Search period end: 06 June 2015 00:00
Orbit: 832 x 847 km, 71.0° (Epoch: 27 May)

Date Brightness Start Highest point End Pass type
(mag) Time Alt. Az. Time Alt. Az. Time Alt. Az.
27 May 2.1 21:04:20 10° S 21:09:54 68° ESE 21:15:33 10° NNE visible
27 May 5.0 22:51:44 10° W 22:54:33 13° NW 22:57:02 10° NNW visible
28 May 2.2 20:48:45 10° S 20:54:17 63° ESE 20:59:54 10° NNE visible
28 May 5.0 22:35:45 10° W 22:38:52 14° WNW 22:41:41 10° NNW visible
29 May 2.2 20:33:10 10° S 20:38:40 59° ESE 20:44:15 10° NNE visible
29 May 5.0 22:19:47 10° W 22:23:11 15° WNW 22:26:18 10° NNW visible
30 May 2.3 20:17:35 10° S 20:23:04 54° ESE 20:28:35 10° NNE visible
30 May 5.0 22:03:51 10° W 22:07:30 17° WNW 22:10:54 10° NNW visible
31 May 5.0 21:47:57 10° WSW 21:51:49 18° WNW 21:55:26 10° NNW visible
01 Jun 5.0 21:32:06 10° WSW 21:36:08 19° WNW 21:39:59 10° NNW visible
02 Jun 5.0 21:16:15 10° WSW 21:20:28 20° WNW 21:24:31 10° NNW visible
03 Jun 4.9 21:00:25 10° WSW 21:04:48 22° WNW 21:09:01 10° NNW visible
04 Jun 4.9 20:44:36 10° WSW 20:49:08 23° WNW 20:53:31 10° N visible
05 Jun 4.9 20:28:48 10° WSW 20:33:28 25° WNW 20:38:00 10° N visible
